Leesburg, VA

5:22 PM EDT on October 20, 2019 (GMT -0400)
Leesburg Executive

Weather History for KJYO - May, 2019

Change the Weather History Date:

Wednesday, May 15, 2019

  Actual Average (WUND) Record (WUND)
Temperature  
Mean Temperature 57 °F -  
Max Temperature 73 °F - - (-1)
Min Temperature 41 °F - - (-1)
Degree Days  
Heating Degree Days 8    
Growing Degree Days 7 (Base 50)    
Moisture  
Dew Point 45 °F    
Average Humidity 64    
Maximum Humidity 100    
Minimum Humidity 35    
Precipitation  
Precipitation 0.00 in - - ()
Sea Level Pressure  
Sea Level Pressure 29.96 in    
Wind  
Wind Speed 5 mph (WNW)    
Max Wind Speed 17 mph    
Max Gust Speed 25 mph    
Visibility 10 miles    
Events      
Averages and records for this station are not official NWS values.
T = Trace of Precipitation, MM = Missing Value Source: NWS Daily Summary

Daily Weather History Graph

Daily Weather History Graph

Search for Another Location

Airport or City:

Astronomy

May. 15, 2019 Rise Set
Actual Time 5:57 AM EDT 8:16 PM EDT
Civil Twilight 5:27 AM EDT 8:46 PM EDT
Nautical Twilight 4:50 AM EDT 9:23 PM EDT
Astronomical Twilight 4:09 AM EDT 10:04 PM EDT
Moon 4:46 PM EDT (5/15) 4:19 AM EDT (5/15)
Length of Visible Light 15h 18m
Length of Day
14h 18m
Waxing Gibbous, 87% of the Moon is Illuminated
May 15
Waxing Gibbous
May 18
Full
May 26
Last Quarter
Jun 3
New
Jun 10
First Quarter

Hourly Weather History & Observations

Time (EDT) Temp. Windchill Dew Point Humidity Pressure Visibility Wind Dir Wind Speed Gust Speed Precip Events Conditions
12:15 AM 48.2 °F - 44.6 °F 87% 29.99 in 10.0 mi Calm Calm - N/A   Scattered Clouds
12:35 AM 48.2 °F - 44.6 °F 87% 30.00 in 10.0 mi Calm Calm - N/A   Scattered Clouds
12:55 AM 44.6 °F 42.2 °F 42.8 °F 93% 30.00 in 10.0 mi WNW 4.6 mph - N/A   Clear
1:15 AM 46.4 °F 43.5 °F 42.8 °F 87% 30.00 in 10.0 mi NW 5.8 mph - N/A   Clear
1:35 AM 50.0 °F - 44.6 °F 82% 30.00 in 10.0 mi NW 4.6 mph - N/A   Clear
1:55 AM 50.0 °F - 42.8 °F 76% 29.99 in 10.0 mi NNW 3.5 mph - N/A   Clear
2:15 AM 48.2 °F - 42.8 °F 82% 29.99 in 10.0 mi NW 4.6 mph - N/A   Clear
2:35 AM 48.2 °F - 42.8 °F 82% 29.99 in 10.0 mi NNW 4.6 mph - N/A   Clear
2:55 AM 46.4 °F 43.5 °F 42.8 °F 87% 29.99 in 10.0 mi NW 5.8 mph - N/A   Clear
3:15 AM 46.4 °F 42.9 °F 42.8 °F 87% 29.98 in 10.0 mi NW 6.9 mph - N/A   Clear
3:35 AM 44.6 °F 42.2 °F 42.8 °F 93% 29.98 in 10.0 mi WNW 4.6 mph - N/A   Clear
3:55 AM 44.6 °F 43.1 °F 42.8 °F 93% 29.98 in 10.0 mi NW 3.5 mph - N/A   Clear
4:15 AM 42.8 °F - 42.8 °F 100% 29.98 in 10.0 mi Calm Calm - N/A   Clear
4:35 AM 42.8 °F - 42.8 °F 100% 29.98 in 10.0 mi Calm Calm - N/A   Clear
4:55 AM 42.8 °F 41.1 °F 42.8 °F 100% 29.97 in 10.0 mi West 3.5 mph - N/A   Clear
5:15 AM 42.8 °F - 42.8 °F 100% 29.97 in 10.0 mi Calm Calm - N/A   Clear
5:35 AM 44.6 °F - 42.8 °F 93% 29.97 in 10.0 mi Calm Calm - N/A   Clear
5:55 AM 42.8 °F - 41.0 °F 93% 29.97 in 10.0 mi Calm Calm - N/A   Clear
6:15 AM 42.8 °F - 42.8 °F 100% 29.98 in 10.0 mi Calm Calm - N/A   Clear
6:35 AM 41.0 °F - 41.0 °F 100% 29.98 in 10.0 mi Calm Calm - N/A   Clear
6:55 AM 42.8 °F - 42.8 °F 100% 29.98 in 10.0 mi Calm Calm - N/A   Clear
7:15 AM 46.4 °F - 44.6 °F 93% 29.99 in 10.0 mi Calm Calm - N/A   Clear
7:35 AM 48.2 °F - 44.6 °F 87% 30.00 in 10.0 mi Calm Calm - N/A   Clear
7:55 AM 51.8 °F - 44.6 °F 76% 30.00 in 10.0 mi WNW 3.5 mph - N/A   Clear
8:15 AM 53.6 °F - 44.6 °F 72% 30.00 in 10.0 mi Calm Calm - N/A   Clear
8:35 AM 55.4 °F - 44.6 °F 67% 30.00 in 10.0 mi NNW 8.1 mph - N/A   Clear
8:55 AM 59.0 °F - 46.4 °F 63% 30.00 in 10.0 mi NW 9.2 mph - N/A   Clear
9:15 AM 59.0 °F - 46.4 °F 63% 30.00 in 10.0 mi NNW 8.1 mph 17.3 mph N/A   Clear
9:30 AM 60.8 °F - 44.6 °F 55% 30.00 in 10.0 mi NNW 8.1 mph - N/A   Clear
9:55 AM 60.8 °F - 46.4 °F 59% 30.00 in 10.0 mi NW 9.2 mph - N/A   Clear
10:15 AM 62.6 °F - 46.4 °F 55% 30.00 in 10.0 mi North 8.1 mph - N/A   Clear
10:35 AM 62.6 °F - 46.4 °F 55% 30.00 in 10.0 mi North 6.9 mph - N/A   Clear
10:55 AM 62.6 °F - 44.6 °F 52% 30.00 in 10.0 mi North 9.2 mph - N/A   Clear
11:15 AM 64.4 °F - 46.4 °F 52% 29.99 in 10.0 mi NW 5.8 mph - N/A   Clear
11:35 AM 64.4 °F - 46.4 °F 52% 29.98 in 10.0 mi North 4.6 mph - N/A   Clear
11:55 AM 68.0 °F - 48.2 °F 49% 29.98 in 10.0 mi West 9.2 mph - N/A   Clear
12:15 PM 68.0 °F - 46.4 °F 46% 29.97 in 10.0 mi NW 9.2 mph 16.1 mph N/A   Clear
12:35 PM 68.0 °F - 46.4 °F 46% 29.96 in 10.0 mi West 8.1 mph 17.3 mph N/A   Clear
12:55 PM 69.8 °F - 46.4 °F 43% 29.95 in 10.0 mi NW 12.7 mph 19.6 mph N/A   Clear
1:15 PM 69.8 °F - 46.4 °F 43% 29.95 in 10.0 mi NNW 6.9 mph 18.4 mph N/A   Clear
1:35 PM 69.8 °F - 44.6 °F 40% 29.94 in 10.0 mi NNW 10.4 mph 17.3 mph N/A   Scattered Clouds
1:55 PM 71.6 °F - 44.6 °F 38% 29.94 in 10.0 mi NNW 11.5 mph 16.1 mph N/A   Scattered Clouds
2:15 PM 71.6 °F - 42.8 °F 35% 29.93 in 10.0 mi NNW 15.0 mph 18.4 mph N/A   Scattered Clouds
2:35 PM 71.6 °F - 44.6 °F 38% 29.93 in 10.0 mi WNW 10.4 mph 18.4 mph N/A   Scattered Clouds
2:55 PM 73.4 °F - 44.6 °F 36% 29.93 in 10.0 mi WNW 13.8 mph 19.6 mph N/A   Scattered Clouds
3:15 PM 73.4 °F - 46.4 °F 38% 29.92 in 10.0 mi WNW 10.4 mph 18.4 mph N/A   Scattered Clouds
3:35 PM 71.6 °F - 42.8 °F 35% 29.92 in 10.0 mi WNW 12.7 mph 19.6 mph N/A   Mostly Cloudy
4:15 PM 73.4 °F - 44.6 °F 36% 29.91 in 10.0 mi WNW 16.1 mph 23.0 mph N/A   Overcast
4:35 PM 71.6 °F - 44.6 °F 38% 29.91 in 10.0 mi NW 17.3 mph 25.3 mph N/A   Overcast
4:55 PM 71.6 °F - 44.6 °F 38% 29.91 in 10.0 mi WNW 12.7 mph - N/A   Overcast
5:15 PM 71.6 °F - 44.6 °F 38% 29.92 in 10.0 mi NW 8.1 mph - N/A   Mostly Cloudy
5:35 PM 71.6 °F - 42.8 °F 35% 29.91 in 10.0 mi WNW 12.7 mph 20.7 mph N/A   Scattered Clouds
5:55 PM 71.6 °F - 42.8 °F 35% 29.91 in 10.0 mi WNW 12.7 mph 20.7 mph N/A   Scattered Clouds
6:15 PM 71.6 °F - 42.8 °F 35% 29.91 in 10.0 mi WNW 12.7 mph 19.6 mph N/A   Clear
6:35 PM 71.6 °F - 42.8 °F 35% 29.91 in 10.0 mi NW 13.8 mph 20.7 mph N/A   Clear
6:55 PM 69.8 °F - 42.8 °F 38% 29.90 in 10.0 mi WNW 9.2 mph - N/A   Clear
7:15 PM 69.8 °F - 42.8 °F 38% 29.91 in 10.0 mi WNW 8.1 mph - N/A   Clear
7:35 PM 66.2 °F - 44.6 °F 46% 29.91 in 10.0 mi West 5.8 mph - N/A   Clear
7:55 PM 64.4 °F - 44.6 °F 49% 29.92 in 10.0 mi West 5.8 mph - N/A   Clear
8:15 PM 62.6 °F - 46.4 °F 55% 29.92 in 10.0 mi West 5.8 mph - N/A   Clear
8:35 PM 62.6 °F - 46.4 °F 55% 29.93 in 10.0 mi West 4.6 mph - N/A   Clear
8:55 PM 60.8 °F - 46.4 °F 59% 29.93 in 10.0 mi SW 3.5 mph - N/A   Clear
9:15 PM 60.8 °F - 44.6 °F 55% 29.93 in 10.0 mi SW 5.8 mph - N/A   Scattered Clouds
9:35 PM 60.8 °F - 46.4 °F 59% 29.93 in 10.0 mi SW 4.6 mph - N/A   Mostly Cloudy
9:55 PM 57.2 °F - 50.0 °F 77% 29.94 in 10.0 mi WSW 5.8 mph - N/A   Overcast
10:15 PM 59.0 °F - 48.2 °F 67% 29.94 in 10.0 mi West 6.9 mph - N/A   Overcast
10:35 PM 59.0 °F - 48.2 °F 67% 29.94 in 10.0 mi West 5.8 mph - N/A   Overcast
10:55 PM 60.8 °F - 48.2 °F 63% 29.94 in 10.0 mi West 4.6 mph - N/A   Overcast
11:10 PM 59.0 °F - 48.2 °F 67% 29.95 in 10.0 mi West 5.8 mph - N/A   Overcast
11:30 PM 60.8 °F - 48.2 °F 63% 29.95 in 10.0 mi WSW 4.6 mph - N/A   Overcast
11:55 PM 59.0 °F - 46.4 °F 63% 29.94 in 10.0 mi WSW 3.5 mph - N/A   Scattered Clouds